Location: Bernay
(48.6766°N, 2.9386°E)
Time: 15:09:27
(UTC+00:00)

IGS 5A - Pass Details

Date: 12 January 2026
Orbit: 551 x 554 km, 97.4° (Epoch: 8 January)

Event Time Altitude Azimuth Distance (km) Brightness Sun altitude
Rises 16:56:30 0° 175° (S) 2,718 7.1 -6.7°
Reaches altitude 10° 16:58:38 10° 179° (S) 1,829 6.3 -7.0°
Maximum altitude 17:02:33 58° 260° (W) 649 4.1 -7.6°
Drops below altitude 10° 17:06:29 10° 340° (NNW) 1,843 6.0 -8.2°
Sets 17:08:39 0° 344° (NNW) 2,742 6.8 -8.5°
